Location: Gwatt
(46.7204°N, 7.6223°E)
Time: 03:15:45
(UTC+00:00)

Vanguard 2 Rocket - Pass Details

Date: 30 January 2021
Orbit: 554 x 3325 km, 32.9° (Epoch: 07 March)

Event Time Altitude Azimuth Distance (km) Brightness Sun altitude
Rises 18:36:30 0° 268° (W) 5,353 12.4 -21.7°
Reaches altitude 10° 18:43:30 10° 242° (WSW) 3,574 10.8 -22.9°
Maximum altitude 18:46:10 12° 224° (SW) 3,138 10.2 -23.4°
Drops below altitude 10° 18:48:31 10° 205° (SSW) 2,993 9.8 -23.8°
Sets 18:52:55 0° 173° (S) 3,448 9.8 -24.5°
